Flag for Germany Weather past 2 weeks in Strausberg, Brandenburg, Germany

Now
46 °F

Light rain. Partly cloudy.


Feels Like: 38 °F
Forecast: 48 / 50 °F
Wind: 24 mph from Southwest

Location: Berlin-Schoenefeld

Current Time: Dec 22, 2014 at 6:49:18 AM

Latest Report: Dec 22, 2014 at 6:20 AM


Visibility: N/A

Pressure: 29.83 "Hg

Humidity: 93%

Dew point: 45 °F

Location of StrausbergLocation

Historic Weather in Strausberg — Graph

°F

Strausberg temperature yesterday

Maximum temperature yesterday: 45 °F (at 11:50 PM)
Minimum temperature yesterday: 39 °F (at 12:20 AM)
Average temperature yesterday: 42 °F

Past Weeks' High & Low Weather Summary

 TemperatureHumidityPressure
High54 °F (Dec 19, 1:20 AM)100% (Dec 7, 9:20 AM)30.39 "Hg (Dec 7, 9:20 AM)
Low27 °F (Dec 9, 5:20 AM)67% (Dec 12, 7:20 PM)29.39 "Hg (Dec 12, 7:20 PM)
Average40 °F89%29.89 "Hg
* Reported Dec 7 5:20 AM — Dec 22 5:20 AM, Strausberg, Weather by CustomWeather, © 2014

Note: Actual official high and low records may vary slightly from our data, if they occured in-between our weather recording intervals... More about our weather records

Advertising

Strausberg weather history for previous 24 hours

 ConditionsComfort  
Time TempWeatherWind HumidityBarometerVisibility
5:20 AM
Dec 22
45 °FPassing clouds.24 mph100%29.83 "HgN/A
4:20 AM46 °FPassing clouds.24 mph87%29.86 "HgN/A
3:50 AM46 °FOvercast.22 mph87%29.86 "HgN/A
3:20 AM46 °FOvercast.22 mph82%29.89 "HgN/A
2:50 AM45 °FPassing clouds.20 mph87%29.89 "HgN/A
2:20 AM45 °FPassing clouds.21 mph87%29.89 "HgN/A
1:50 AM43 °FPassing clouds.22 mph93%29.89 "HgN/A
1:20 AM43 °FPassing clouds.22 mph93%29.92 "HgN/A
12:50 AM43 °FLight rain. Passing clouds.20 mph93%29.95 "HgN/A
12:20 AM45 °FLight rain. Passing clouds.22 mph87%29.95 "HgN/A
11:50 PM
Dec 21
45 °FLight rain. Passing clouds.21 mph87%29.98 "HgN/A
11:20 PM43 °FLight rain. Passing clouds.22 mph93%29.98 "HgN/A
10:20 PM43 °FLight rain. Passing clouds.21 mph87%30.01 "HgN/A
9:50 PM43 °FPassing clouds.18 mph93%30.04 "HgN/A
9:20 PM43 °FLight rain. Passing clouds.18 mph87%30.04 "HgN/A
8:50 PM43 °FPassing clouds.18 mph87%30.07 "HgN/A
8:20 PM43 °FLight rain. Passing clouds.18 mph87%30.07 "HgN/A
7:50 PM43 °FLight rain. Passing clouds.16 mph87%30.09 "HgN/A
7:20 PM41 °FLight rain. Passing clouds.15 mph93%30.09 "HgN/A
6:50 PM43 °FLight rain. Passing clouds.16 mph87%30.09 "HgN/A
6:20 PM43 °FPassing clouds.15 mph81%30.12 "HgN/A
5:50 PM43 °FPartly cloudy.16 mph81%30.12 "HgN/A
5:20 PM43 °FPassing clouds.15 mph81%30.12 "HgN/A
4:50 PM43 °FPassing clouds.16 mph87%30.15 "HgN/A
4:20 PM41 °FLight rain. Passing clouds.15 mph93%30.15 "HgN/A
3:50 PM43 °FLight rain. Partly sunny.13 mph81%30.15 "HgN/A
3:20 PM43 °FBroken clouds.13 mph81%30.18 "HgN/A
2:50 PM43 °FBroken clouds.16 mph81%30.18 "HgN/A
2:20 PM43 °FBroken clouds.17 mph81%30.18 "HgN/A
1:50 PM43 °FBroken clouds.20 mph81%30.18 "HgN/A
1:20 PM43 °FBroken clouds.20 mph81%30.21 "HgN/A
12:20 PM43 °FBroken clouds.21 mph81%30.21 "HgN/A
11:50 AM43 °FBroken clouds.17 mph81%30.21 "HgN/A
11:20 AM43 °FBroken clouds.18 mph81%30.21 "HgN/A
10:50 AM41 °FBroken clouds.15 mph87%30.21 "HgN/A
10:20 AM41 °FPartly sunny.18 mph87%30.21 "HgN/A
9:50 AM41 °FScattered clouds.21 mph87%30.21 "HgN/A
9:20 AM41 °FScattered clouds.18 mph87%30.21 "HgN/A
8:50 AM41 °FScattered clouds.20 mph87%30.18 "HgN/A
8:20 AM41 °FScattered clouds.20 mph87%30.18 "HgN/A
7:50 AM41 °FPassing clouds.17 mph87%30.18 "HgN/A
7:20 AM41 °FPassing clouds.17 mph87%30.15 "HgN/A
6:50 AM41 °FPassing clouds.18 mph87%30.12 "HgN/A
6:20 AM41 °FPartly cloudy.18 mph87%30.12 "HgN/A
Weather by CustomWeather, © 2014

See weather overviewHow to use our weather pages